[[{"header":{"parameterUnit":"m.s-1","parameterCategory":1,"la1":30.2991,"la2":30.254,"lo1":-89.0895,"lo2":-89.0444,"dy":0.0017,"dx":0.0017,"nx":28,"ny":28,"refTime":"2024-10-02T03:00:00:Z","depth":0,"parameterNumber":2,"parameterNumberName":"U-component_of_WINDS"},"data":[0,0,0,0,0,0,0,0,0,0,0,0,0,0,0,0,0,0,0,0,0,0,0,0,0,0,0,0,0,0,0,0,0,0,0,0,0,0,0,0,0,0,0,0,0,0,0,0,0,0,0,0,0,0,0,0,0,0,-0.3487,-0.3485,0,-0.3377,-0.3376,-0.3374,-0.3322,-0.3322,-0.3322,-0.3322,-0.321,-0.3207,-0.3204,0,0,0,0,0,0,0,0,0,0,0,0,0,-0.3655,-0.3652,-0.3487,-0.3485,-0.3484,-0.3377,-0.3376,-0.3374,-0.3322,-0.3322,-0.3322,-0.3322,-0.3211,-0.3208,-0.3204,0,0,0,0,0,0,0,0,0,0,0,0,0,-0.3567,-0.3651,-0.3487,-0.3445,-0.344,-0.3377,-0.3375,-0.3374,-0.3322,-0.3322,-0.3322,-0.3322,-0.3212,-0.3208,-0.3203,-0.3174,0,0,-0.319,-0.3188,0,0,0,0,0,0,0,0,-0.3572,-0.3561,-0.3453,-0.3448,-0.3442,-0.3363,-0.3394,-0.3307,-0.3322,-0.3367,-0.3322,-0.3322,-0.3261,-0.3253,-0.3232,-0.3169,-0.3164,-0.3189,-0.3187,-0.3185,-0.3183,0,0,0,0,0,0,0,-0.3578,-0.3565,-0.3443,-0.3451,-0.3445,-0.3433,-0.342,-0.3377,-0.3315,-0.3363,-0.3359,-0.3346,-0.3258,-0.3236,-0.3229,-0.3163,-0.3189,-0.3185,-0.3183,-0.3181,-0.3075,-0.3075,0,0,0,0,0,0,-0.3591,-0.3571,-0.3447,-0.344,-0.3509,-0.343,-0.3416,-0.3388,-0.3315,-0.3304,-0.3346,-0.3344,-0.3244,-0.3234,-0.3225,-0.3188,-0.3185,-0.318,-0.3178,-0.3075,-0.3075,-0.3075,0,0,0,0,0,0,-0.3595,-0.358,-0.3451,-0.3504,-0.3487,-0.3427,-0.3396,-0.3386,-0.3364,-0.3303,-0.3292,-0.3335,-0.3244,-0.3231,-0.3188,-0.3184,-0.3178,-0.3174,-0.3075,-0.3075,-0.3075,-0.3114,0,0,0,0,0,0,-0.36,-0.3582,-0.3569,-0.3504,-0.3484,-0.3415,-0.3396,-0.3384,-0.3356,-0.3353,-0.3289,-0.3279,-0.3243,-0.3195,-0.3184,-0.3177,-0.3171,-0.3076,-0.3075,-0.3075,-0.3113,-0.3115,-0.3117,0,0,0,0,0,-0.3606,-0.3584,-0.3569,-0.3554,-0.3467,-0.3415,-0.3404,-0.3362,-0.3356,-0.3344,-0.3305,-0.3281,-0.3186,-0.3191,-0.3178,-0.317,-0.3076,-0.3075,-0.3075,-0.3112,-0.3115,-0.3117,0,0,0,0,0,0,-0.3649,-0.3574,-0.3557,-0.3513,-0.3471,-0.3406,-0.3389,-0.3366,-0.3325,-0.3323,-0.3274,-0.326,-0.3223,-0.3192,-0.3199,-0.314,-0.3129,-0.3126,-0.3161,-0.3163,-0.3166,-0.3174,-0.3167,0,0,0,0,0,-0.3653,-0.3617,-0.3554,-0.3521,-0.3501,-0.3449,-0.3425,-0.3397,-0.3352,-0.3334,-0.3291,-0.3249,-0.321,-0.3185,-0.3145,-0.3109,-0.3096,-0.3097,-0.3099,-0.3101,-0.3099,-0.3081,-0.3082,-0.3074,-0.3074,-0.3074,0,0,-0.3662,-0.3617,-0.3596,-0.3529,-0.3493,-0.3458,-0.3434,-0.3397,-0.3371,-0.3328,-0.3285,-0.3254,-0.3203,-0.3164,-0.3145,-0.3138,-0.3099,-0.3101,-0.3103,-0.31,-0.3081,-0.3082,-0.3082,-0.3074,-0.3074,-0.3074,0,0,-0.3659,-0.3621,-0.3591,-0.3556,-0.3503,-0.3469,-0.3462,-0.3402,-0.3379,-0.3336,-0.3304,-0.3273,-0.3206,-0.3172,-0.3146,-0.3136,-0.3114,-0.3125,-0.3136,-0.3119,-0.3119,-0.312,-0.3118,-0.3118,-0.3123,-0.3123,-0.3123,0,-0.3677,-0.3621,-0.3578,-0.3544,-0.3517,-0.3477,-0.3448,-0.3416,-0.3353,-0.3336,-0.3328,-0.3246,-0.3209,-0.3163,-0.3161,-0.3141,-0.3133,-0.3131,-0.3123,-0.3122,-0.3122,-0.312,-0.312,-0.3125,-0.3125,-0.3125,-0.3124,0,-0.3647,-0.3609,-0.3592,-0.3533,-0.3503,-0.3471,-0.3425,-0.3401,-0.3377,-0.3345,-0.3303,-0.3258,-0.321,-0.3197,-0.3173,-0.3149,-0.3147,-0.3132,-0.3119,-0.3125,-0.3123,-0.3122,-0.3128,-0.3127,-0.3126,-0.3126,0,0,-0.3665,-0.3586,-0.358,-0.3554,-0.3494,-0.3465,-0.3433,-0.3387,-0.3368,-0.3327,-0.3301,-0.3247,-0.3234,-0.3205,-0.3176,-0.3161,-0.316,-0.3148,-0.3147,-0.3153,-0.3134,-0.3146,-0.3146,-0.3145,-0.3144,-0.3144,-0.3139,0,-0.3656,-0.3596,-0.3558,-0.3514,-0.3481,-0.3445,-0.3418,-0.3379,-0.3349,-0.3318,-0.3285,-0.3248,-0.3233,-0.3215,-0.3199,-0.3163,-0.3155,-0.3163,-0.3121,-0.312,-0.3135,-0.3144,-0.3156,-0.3153,-0.3138,-0.3137,-0.3137,0,-0.3635,-0.3597,-0.3549,-0.3497,-0.3481,-0.3457,-0.3414,-0.3383,-0.334,-0.332,-0.329,-0.3262,-0.3229,-0.3221,-0.3176,-0.3183,-0.3164,-0.3144,-0.3143,-0.3138,-0.3129,-0.314,-0.3151,-0.3151,-0.3135,-0.3135,-0.3135,0,-0.3656,-0.3592,-0.3556,-0.3535,-0.3472,-0.3457,-0.343,-0.3387,-0.3363,-0.3325,-0.331,-0.3269,-0.3247,-0.3217,-0.318,-0.3177,-0.3141,-0.3128,-0.3125,-0.3126,-0.3118,-0.3119,-0.3127,-0.3105,-0.3105,-0.3105,-0.3105,0,-0.3649,-0.3622,-0.3565,-0.3543,-0.3513,-0.3472,-0.3443,-0.3414,-0.3377,-0.335,-0.3317,-0.3293,-0.3245,-0.3216,-0.3187,-0.3156,-0.3146,-0.313,-0.3123,-0.3133,-0.3136,-0.312,-0.312,-0.3105,-0.3105,-0.3105,-0.3105,0,-0.3667,-0.3627,-0.3586,-0.3531,-0.3517,-0.3497,-0.3451,-0.343,-0.3399,-0.3366,-0.3356,-0.3309,-0.3273,-0.3234,-0.3184,-0.3165,-0.3137,-0.3126,-0.3152,-0.3148,-0.3147,-0.3148,-0.3146,-0.3144,-0.3123,-0.3123,-0.3123,0,-0.3665,-0.3644,-0.3587,-0.3567,-0.3542,-0.3509,-0.3485,-0.3445,-0.3422,-0.3373,-0.3359,-0.3321,-0.3288,-0.3233,-0.3195,-0.3159,-0.3147,-0.3149,-0.3141,-0.3154,-0.3149,-0.3151,-0.315,-0.3151,-0.3152,-0.3152,-0.3152,0,-0.3667,-0.365,-0.3616,-0.3576,-0.3549,-0.3516,-0.3481,-0.3467,-0.3421,-0.3397,-0.336,-0.3335,-0.3287,-0.325,-0.321,-0.3184,-0.3161,-0.3156,-0.3153,-0.3164,-0.318,-0.3173,-0.3159,-0.3155,-0.3155,-0.3155,-0.3155,-0.3155,-0.3675,-0.3656,-0.3615,-0.3579,-0.355,-0.352,-0.3498,-0.3466,-0.3435,-0.3392,-0.3371,-0.3335,-0.3297,-0.324,-0.3215,-0.3189,-0.3181,-0.3177,-0.3176,-0.3176,-0.318,-0.3185,-0.3181,-0.3181,-0.3181,-0.318,-0.318,0,-0.3677,-0.365,-0.3618,-0.3572,-0.3545,-0.3527,-0.3489,-0.3468,-0.3437,-0.3403,-0.3373,-0.3333,-0.3299,-0.326,-0.3224,-0.321,-0.3199,-0.3202,-0.3203,-0.3198,-0.3187,-0.3194,-0.3212,-0.3212,-0.3212,-0.3212,-0.3212,-0.3212,-0.3675,-0.3642,-0.3621,-0.3574,-0.3547,-0.3512,-0.3493,-0.3466,-0.3439,-0.3396,-0.3367,-0.3342,-0.3307,-0.3269,-0.3238,-0.3228,-0.3217,-0.3223,-0.321,-0.3201,-0.3198,-0.3195,-0.3201,-0.322,-0.3221,-0.3222,-0.3222,-0.3222]},{"header":{"parameterUnit":"m.s-1","parameterCategory":1,"la1":30.2991,"la2":30.254,"lo1":-89.0895,"lo2":-89.0444,"dy":0.0017,"dx":0.0017,"nx":28,"ny":28,"refTime":"2024-10-02T03:00:00:Z","depth":0,"parameterNumber":3,"parameterNumberName":"V-component_of_WINDS"},"data":[0,0,0,0,0,0,0,0,0,0,0,0,0,0,0,0,0,0,0,0,0,0,0,0,0,0,0,0,0,0,0,0,0,0,0,0,0,0,0,0,0,0,0,0,0,0,0,0,0,0,0,0,0,0,0,0,0,0,1.9288,1.9288,0,1.9297,1.9297,1.9297,1.9262,1.9261,1.926,1.9259,1.9267,1.9268,1.9269,0,0,0,0,0,0,0,0,0,0,0,0,0,1.9236,1.9238,1.9288,1.9288,1.9288,1.9297,1.9297,1.9297,1.9262,1.9261,1.9259,1.9258,1.9267,1.9268,1.9269,0,0,0,0,0,0,0,0,0,0,0,0,0,1.9254,1.9238,1.9288,1.9272,1.927,1.9297,1.9297,1.9297,1.9262,1.9261,1.9259,1.9258,1.9266,1.9268,1.927,1.9312,0,0,1.9275,1.9276,0,0,0,0,0,0,0,0,1.9253,1.9255,1.9274,1.9273,1.9271,1.9277,1.9282,1.9302,1.9263,1.9265,1.9259,1.9257,1.9271,1.9273,1.9278,1.9313,1.9313,1.9275,1.9276,1.9277,1.9278,0,0,0,0,0,0,0,1.9252,1.9255,1.9292,1.9274,1.9273,1.9263,1.9263,1.9286,1.9277,1.9265,1.9262,1.9264,1.927,1.9276,1.9278,1.9313,1.9275,1.9277,1.9278,1.9279,1.9379,1.938,0,0,0,0,0,0,1.9253,1.9254,1.9291,1.9292,1.9258,1.9265,1.9266,1.9277,1.9277,1.9275,1.9265,1.9262,1.9274,1.9276,1.9278,1.9324,1.9277,1.9279,1.928,1.9377,1.9379,1.9381,0,0,0,0,0,0,1.9252,1.9256,1.9291,1.9272,1.9276,1.9268,1.928,1.9278,1.9283,1.9277,1.9275,1.9273,1.9273,1.9275,1.9303,1.9324,1.928,1.9281,1.9375,1.9378,1.938,1.9419,0,0,0,0,0,0,1.9251,1.9256,1.9273,1.9273,1.9277,1.9317,1.9281,1.9279,1.9287,1.9283,1.9284,1.9282,1.9272,1.9301,1.9305,1.9326,1.9283,1.9373,1.9377,1.9379,1.9416,1.9423,1.9429,0,0,0,0,0,1.9249,1.9285,1.9274,1.9279,1.9298,1.9318,1.9321,1.9308,1.9289,1.9305,1.93,1.9282,1.9322,1.9304,1.9308,1.933,1.9372,1.9376,1.9379,1.9413,1.9422,1.9428,0,0,0,0,0,0,1.9288,1.9285,1.9273,1.931,1.9315,1.9312,1.9332,1.9318,1.9328,1.9323,1.9307,1.9308,1.9337,1.9337,1.9317,1.9369,1.9343,1.9348,1.9368,1.9376,1.9382,1.938,1.9284,0,0,0,0,0,1.9301,1.9319,1.9314,1.9347,1.935,1.9341,1.9349,1.9339,1.9343,1.9345,1.9342,1.9346,1.9359,1.9368,1.938,1.9417,1.9414,1.9434,1.944,1.9445,1.9448,1.9464,1.9471,1.9393,1.9393,1.9392,0,0,1.9329,1.9329,1.9341,1.9355,1.9358,1.9374,1.9343,1.9363,1.9374,1.9348,1.9372,1.9371,1.9374,1.9405,1.9419,1.9406,1.947,1.945,1.9454,1.9454,1.9468,1.9476,1.9482,1.9395,1.9395,1.9394,0,0,1.9385,1.9389,1.9414,1.9417,1.942,1.9414,1.942,1.9419,1.9417,1.9442,1.9421,1.9434,1.9458,1.946,1.9464,1.9519,1.9501,1.9523,1.9554,1.957,1.9576,1.9581,1.9597,1.9603,1.9527,1.9527,1.9527,0,1.9418,1.9443,1.943,1.9449,1.9455,1.9432,1.9456,1.9459,1.9467,1.947,1.9456,1.9483,1.9484,1.9513,1.9526,1.9532,1.9536,1.9522,1.9576,1.9582,1.9586,1.9601,1.9608,1.953,1.9529,1.9529,1.9529,0,1.948,1.9498,1.9518,1.9524,1.9533,1.9555,1.9544,1.9554,1.9543,1.9537,1.9561,1.9561,1.957,1.9577,1.9567,1.9604,1.9595,1.9579,1.9552,1.9596,1.961,1.9616,1.9533,1.9532,1.9531,1.9531,0,0,1.9562,1.9559,1.9566,1.9567,1.9569,1.9581,1.9602,1.9611,1.9617,1.9624,1.9638,1.9657,1.9641,1.9646,1.9636,1.965,1.9688,1.9631,1.9631,1.9638,1.9725,1.9734,1.9742,1.9678,1.9679,1.968,1.9723,0,1.9614,1.9648,1.9636,1.967,1.9683,1.9661,1.9678,1.968,1.9675,1.9685,1.968,1.9692,1.9672,1.9674,1.9687,1.9681,1.9705,1.9678,1.9688,1.9689,1.9685,1.9749,1.976,1.9801,1.9729,1.973,1.973,0,1.9679,1.9686,1.9721,1.9717,1.9722,1.9738,1.9743,1.9754,1.9755,1.975,1.9754,1.974,1.9758,1.9733,1.9756,1.9738,1.9741,1.9739,1.974,1.9738,1.971,1.9745,1.9814,1.9819,1.9739,1.9739,1.9738,0,1.9729,1.9748,1.977,1.9772,1.9769,1.978,1.9779,1.9778,1.9783,1.9789,1.9791,1.9799,1.9802,1.9807,1.9795,1.9779,1.9818,1.9793,1.9812,1.9812,1.9819,1.9818,1.9886,1.9827,1.9827,1.9827,1.9827,0,1.9787,1.9808,1.9792,1.9805,1.9828,1.9813,1.9836,1.9832,1.9832,1.9843,1.9825,1.9836,1.982,1.9829,1.982,1.9837,1.984,1.9835,1.9832,1.9835,1.9835,1.9835,1.983,1.9828,1.9828,1.9828,1.9827,0,1.9845,1.9836,1.9858,1.9853,1.9852,1.9868,1.9863,1.9874,1.9868,1.9882,1.9884,1.9874,1.9883,1.9872,1.9881,1.9874,1.9897,1.9892,1.9897,1.9894,1.9912,1.9909,1.9979,1.9986,1.9926,1.9927,1.9927,0,1.9881,1.9896,1.9892,1.9898,1.9898,1.9908,1.9913,1.9899,1.9905,1.9905,1.9916,1.9924,1.9928,1.9944,1.9936,1.9942,1.9934,1.9958,1.9935,1.9936,1.993,1.9928,1.9928,1.9962,1.9963,1.9964,1.9964,0,1.9943,1.9937,1.9944,1.995,1.9955,1.9959,1.9961,1.9967,1.9953,1.996,1.9968,1.9972,1.998,1.9987,1.999,1.9988,1.9972,1.9972,1.9976,1.9977,1.9978,1.9974,1.9906,1.997,1.9969,1.9969,1.9968,1.9968,1.9988,2.0,1.9998,2.0006,2.0006,2.0008,2.0017,2.0011,2.0018,2.0023,2.0015,2.0025,2.0023,2.0026,2.0026,2.0032,2.0022,2.0029,2.003,2.0031,2.0032,1.998,2.0034,2.0033,2.0033,2.0033,2.0033,0,2.0046,2.0043,2.0051,2.0054,2.006,2.0046,2.0047,2.0053,2.0062,2.0062,2.0066,2.0075,2.0081,2.0074,2.0078,2.0085,2.0078,2.0086,2.0084,2.0083,2.0043,2.0037,2.0091,2.0091,2.0091,2.0091,2.0091,2.0091,2.0077,2.0094,2.0087,2.0104,2.0101,2.011,2.0112,2.0113,2.0112,2.0122,2.0127,2.0122,2.0119,2.0122,2.0126,2.0124,2.0125,2.0135,2.013,2.0092,2.0086,2.0081,2.0075,2.0136,2.0136,2.0169,2.0169,2.0169]}]]